Home   Weather   Thessaloniki   Past weeks
Flag for Greece

Past Weather in Thessaloniki, Greece — Yesterday and Last 2 Weeks

Now
45 °F

Passing clouds.


Feels Like: 45 °F
Forecast: 61 / 47 °F
Wind: No wind

Location: Thessaloniki Airport

Current Time: Mar 26, 2019 at 8:43:57 am

Latest Report: Mar 26, 2019 at 7:50 am


Visibility: N/A

Pressure: 29.83 "Hg

Humidity: 81%

Dew Point: 39 °F

Location of ThessalonikiLocation

Past Weather in Thessaloniki — Graph

°F

Thessaloniki Temperature Yesterday

Maximum temperature yesterday: 66 °F (at 2:50 pm)
Minimum temperature yesterday: 41 °F (at 5:50 am)
Average temperature yesterday: 52 °F

High & Low Weather Summary for the Past Weeks

 TemperatureHumidityPressure
High73 °F (Mar 17, 3:50 pm)100% (Mar 12, 6:50 pm)30.39 "Hg (Mar 12, 6:50 pm)
Low37 °F (Mar 16, 4:50 am)23% (Mar 17, 4:50 pm)29.65 "Hg (Mar 12, 3:20 am)
Average54 °F67%30.01 "Hg
* Reported Mar 11 7:20 am — Mar 26 7:20 am, Thessaloniki. Weather by CustomWeather, © 2019

Note: Actual official high and low records may vary slightly from our data, if they occured in-between our weather recording intervals... More about our weather records

Advertising

Thessaloniki Weather History for the Previous 24 Hours

Scroll right to see more
 ConditionsComfort  
Time TempWeatherWind HumidityBarometerVisibility
7:20 am
Tue, Mar 26
45 °FPassing clouds.3 mph87%29.83 "HgN/A
6:50 am43 °FPassing clouds.3 mph93%29.80 "HgN/A
6:20 am43 °FPassing clouds.3 mph87%29.80 "HgN/A
5:50 am45 °FClear.3 mph76%29.80 "Hg10 mi
5:20 am43 °FClear.3 mph87%29.80 "Hg10 mi
4:50 am43 °FClear.5 mph87%29.80 "Hg10 mi
4:20 am43 °FClear.7 mph81%29.80 "Hg10 mi
3:50 am43 °FClear.5 mph81%29.80 "Hg10 mi
3:20 am45 °FClear.7 mph81%29.80 "Hg10 mi
2:50 am45 °FClear.7 mph81%29.80 "Hg10 mi
2:20 am45 °FClear.6 mph81%29.80 "Hg10 mi
1:50 am45 °FClear.5 mph81%29.80 "Hg10 mi
1:20 am46 °FClear.3 mph76%29.80 "Hg10 mi
12:50 am46 °FClear.5 mph82%29.80 "Hg10 mi
12:20 am46 °FClear.5 mph82%29.80 "Hg10 mi
11:50 pm
Mon, Mar 25
46 °FClear.3 mph82%29.80 "Hg10 mi
11:20 pm48 °FClear.3 mph82%29.80 "Hg10 mi
10:50 pm48 °FClear.6 mph82%29.80 "Hg10 mi
10:20 pm52 °FClear.3 mph72%29.83 "Hg10 mi
9:50 pm52 °FClear.3 mph72%29.83 "Hg10 mi
9:20 pm54 °FClear.No wind67%29.80 "Hg10 mi
8:50 pm54 °FClear.No wind67%29.80 "Hg10 mi
8:20 pm55 °FClear.3 mph63%29.80 "Hg10 mi
7:50 pm55 °FClear.2 mph63%29.80 "Hg10 mi
7:20 pm57 °FClear.5 mph55%29.80 "Hg10 mi
6:50 pm59 °FClear.5 mph51%29.83 "Hg10 mi
6:20 pm61 °FSunny.10 mph48%29.80 "Hg10 mi
5:50 pm61 °FSunny.15 mph48%29.80 "Hg10 mi
5:20 pm63 °FSunny.15 mph52%29.83 "Hg10 mi
4:50 pm63 °FSunny.15 mph49%29.83 "Hg10 mi
4:20 pm64 °FSunny.15 mph46%29.83 "Hg10 mi
3:50 pm64 °FSunny.15 mph46%29.83 "Hg10 mi
3:20 pm64 °FPassing clouds.14 mph43%29.83 "HgN/A
2:50 pm66 °FPassing clouds.9 mph37%29.86 "HgN/A
1:50 pm59 °FSunny.12 mph68%29.89 "Hg10 mi
1:20 pm59 °FSunny.8 mph63%29.92 "Hg10 mi
12:50 pm59 °FSunny.7 mph63%29.95 "Hg10 mi
12:20 pm57 °FSunny.8 mph67%29.95 "Hg10 mi
11:20 am57 °FPassing clouds.7 mph72%29.98 "HgN/A
10:50 am55 °FPassing clouds.6 mph72%29.98 "HgN/A
10:20 am54 °FPassing clouds.7 mph77%30.01 "HgN/A
9:50 am54 °FPassing clouds.3 mph77%30.01 "HgN/A
9:20 am54 °FSunny.3 mph72%30.01 "Hg10 mi
8:50 am50 °FSunny.3 mph76%30.01 "Hg10 mi
8:20 am46 °FSunny.3 mph82%30.01 "Hg10 mi
Weather by CustomWeather, © 2019

See weather overview